Time,TemperatureF,DewpointF,PressureIn,WindDirection,WindDirectionDegrees,WindSpeedMPH,WindSpeedGustMPH,Humidity,HourlyPrecipIn,Conditions,Clouds,dailyrainin,SoftwareType,DateUTC
2013-01-21 00:09:00,26.1,11.3,29.87,West,270,3.2,-999.0,53,-99.99,,,0.00,Acu-Link.com,2013-01-21 05:09:00,
2013-01-21 00:24:00,25.9,11.6,29.87,WSW,247,2.7,-999.0,54,-99.99,,,0.00,Acu-Link.com,2013-01-21 05:24:00,
2013-01-21 00:39:00,25.9,10.7,29.88,NNE,22,4.7,-999.0,52,-99.99,,,0.00,Acu-Link.com,2013-01-21 05:39:00,
2013-01-21 00:54:00,25.7,11.0,29.89,East,90,3.2,-999.0,53,-99.99,,,0.00,Acu-Link.com,2013-01-21 05:54:00,
2013-01-21 01:09:00,25.2,10.9,29.90,North,0,3.2,-999.0,54,-99.99,,,0.00,Acu-Link.com,2013-01-21 06:09:00,
2013-01-21 01:24:00,25.0,11.9,29.91,West,270,2.7,-999.0,57,-99.99,,,0.00,Acu-Link.com,2013-01-21 06:24:00,
2013-01-21 01:39:00,24.4,12.5,29.92,West,270,3.7,-999.0,60,-99.99,,,0.00,Acu-Link.com,2013-01-21 06:39:00,
2013-01-21 01:54:00,24.4,12.5,29.93,NW,315,4.7,-999.0,60,-99.99,,,0.00,Acu-Link.com,2013-01-21 06:54:00,
2013-01-21 02:10:00,23.9,12.4,29.94,ESE,112,1.1,-999.0,61,-99.99,,,0.00,Acu-Link.com,2013-01-21 07:10:00,
2013-01-21 02:25:00,23.5,12.4,29.95,West,270,1.1,-999.0,62,-99.99,,,0.00,Acu-Link.com,2013-01-21 07:25:00,
2013-01-21 02:40:00,23.4,11.6,29.95,WNW,292,3.2,-999.0,60,-99.99,,,0.00,Acu-Link.com,2013-01-21 07:40:00,
2013-01-21 02:55:00,23.0,10.8,29.95,WSW,247,2.2,-999.0,59,-99.99,,,0.00,Acu-Link.com,2013-01-21 07:55:00,
2013-01-21 03:10:00,22.6,10.8,29.95,South,180,2.7,-999.0,60,-99.99,,,0.00,Acu-Link.com,2013-01-21 08:10:00,
2013-01-21 03:25:00,22.3,10.2,29.96,SW,225,1.7,-999.0,59,-99.99,,,0.00,Acu-Link.com,2013-01-21 08:25:00,
2013-01-21 03:40:00,21.7,9.6,29.97,NNE,22,2.2,-999.0,59,-99.99,,,0.00,Acu-Link.com,2013-01-21 08:40:00,
2013-01-21 03:55:00,21.2,9.5,29.97,ENE,67,2.2,-999.0,60,-99.99,,,0.00,Acu-Link.com,2013-01-21 08:55:00,
2013-01-21 04:16:00,21.0,9.3,29.98,NW,315,3.2,-999.0,60,-99.99,,,0.00,Acu-Link.com,2013-01-21 09:16:00,
2013-01-21 04:46:00,19.8,10.0,29.98,WNW,292,0.0,-999.0,65,-99.99,,,0.00,Acu-Link.com,2013-01-21 09:46:00,
2013-01-21 05:02:00,19.0,9.2,29.99,WNW,292,0.0,-999.0,65,-99.99,,,0.00,Acu-Link.com,2013-01-21 10:02:00,
2013-01-21 05:17:00,18.3,8.9,29.99,SE,135,0.0,-999.0,66,-99.99,,,0.00,Acu-Link.com,2013-01-21 10:17:00,
2013-01-21 05:32:00,18.0,9.6,30.00,ESE,112,0.0,-999.0,69,-99.99,,,0.00,Acu-Link.com,2013-01-21 10:32:00,
2013-01-21 05:47:00,17.4,10.3,30.01,SSE,157,0.0,-999.0,73,-99.99,,,0.00,Acu-Link.com,2013-01-21 10:47:00,
2013-01-21 06:02:00,16.7,9.9,30.01,NNW,337,0.0,-999.0,74,-99.99,,,0.00,Acu-Link.com,2013-01-21 11:02:00,
2013-01-21 06:17:00,16.3,10.1,30.01,NNE,22,2.2,-999.0,76,-99.99,,,0.00,Acu-Link.com,2013-01-21 11:17:00,
2013-01-21 06:32:00,16.3,10.1,30.00,South,180,0.0,-999.0,76,-99.99,,,0.00,Acu-Link.com,2013-01-21 11:32:00,
2013-01-21 06:47:00,17.1,10.0,30.01,SSE,157,1.7,-999.0,73,-99.99,,,0.00,Acu-Link.com,2013-01-21 11:47:00,
2013-01-21 07:03:00,16.5,9.4,30.02,NW,315,0.0,-999.0,73,-99.99,,,0.00,Acu-Link.com,2013-01-21 12:03:00,
2013-01-21 07:18:00,16.0,9.5,30.02,South,180,0.0,-999.0,75,-99.99,,,0.00,Acu-Link.com,2013-01-21 12:18:00,
2013-01-21 07:33:00,16.0,9.5,30.02,SSW,202,0.0,-999.0,75,-99.99,,,0.00,Acu-Link.com,2013-01-21 12:33:00,
2013-01-21 07:48:00,17.8,11.5,30.04,South,180,2.2,-999.0,76,-99.99,,,0.00,Acu-Link.com,2013-01-21 12:48:00,
2013-01-21 08:03:00,19.4,11.6,30.04,South,180,1.7,-999.0,71,-99.99,,,0.00,Acu-Link.com,2013-01-21 13:03:00,
2013-01-21 08:18:00,21.2,11.6,30.04,South,180,0.0,-999.0,66,-99.99,,,0.00,Acu-Link.com,2013-01-21 13:18:00,
2013-01-21 08:33:00,21.4,10.1,30.05,SSW,202,1.1,-999.0,61,-99.99,,,0.00,Acu-Link.com,2013-01-21 13:33:00,
2013-01-21 08:48:00,22.3,10.6,30.04,SSW,202,1.1,-999.0,60,-99.99,,,0.00,Acu-Link.com,2013-01-21 13:48:00,
2013-01-21 09:03:00,23.7,11.9,30.05,West,270,0.0,-999.0,60,-99.99,,,0.00,Acu-Link.com,2013-01-21 14:03:00,
2013-01-21 09:19:00,24.1,10.7,30.06,NE,45,1.1,-999.0,56,-99.99,,,0.00,Acu-Link.com,2013-01-21 14:19:00,
2013-01-21 09:34:00,24.3,10.1,30.06,NW,315,2.2,-999.0,54,-99.99,,,0.00,Acu-Link.com,2013-01-21 14:34:00,
2013-01-21 09:49:00,24.4,10.2,30.05,NNW,337,2.2,-999.0,54,-99.99,,,0.00,Acu-Link.com,2013-01-21 14:49:00,
2013-01-21 10:04:00,25.0,9.9,30.04,NNE,22,0.0,-999.0,52,-99.99,,,0.00,Acu-Link.com,2013-01-21 15:04:00,
2013-01-21 10:19:00,26.8,10.7,30.04,South,180,4.2,-999.0,50,-99.99,,,0.00,Acu-Link.com,2013-01-21 15:19:00,
2013-01-21 10:34:00,27.7,10.6,30.03,NW,315,2.7,-999.0,48,-99.99,,,0.00,Acu-Link.com,2013-01-21 15:34:00,
2013-01-21 10:49:00,27.7,10.1,30.02,WSW,247,2.7,-999.0,47,-99.99,,,0.00,Acu-Link.com,2013-01-21 15:49:00,
2013-01-21 11:04:00,29.1,11.4,30.01,NW,315,4.7,-999.0,47,-99.99,,,0.00,Acu-Link.com,2013-01-21 16:04:00,
2013-01-21 11:19:00,28.6,9.0,30.00,NW,315,3.2,-999.0,43,-99.99,,,0.00,Acu-Link.com,2013-01-21 16:19:00,
2013-01-21 11:34:00,28.8,9.7,29.99,North,0,4.2,-999.0,44,-99.99,,,0.00,Acu-Link.com,2013-01-21 16:34:00,
2013-01-21 11:50:00,28.8,10.2,29.98,NE,45,1.1,-999.0,45,-99.99,,,0.00,Acu-Link.com,2013-01-21 16:50:00,
2013-01-21 12:05:00,28.0,8.9,29.97,WNW,292,2.2,-999.0,44,-99.99,,,0.00,Acu-Link.com,2013-01-21 17:05:00,
2013-01-21 12:20:00,28.0,9.4,29.96,SSW,202,0.0,-999.0,45,-99.99,,,0.00,Acu-Link.com,2013-01-21 17:20:00,
2013-01-21 12:35:00,28.2,10.1,29.95,SSE,157,1.7,-999.0,46,-99.99,,,0.00,Acu-Link.com,2013-01-21 17:35:00,
2013-01-21 12:50:00,28.9,10.8,29.95,NE,45,2.7,-999.0,46,-99.99,,,0.00,Acu-Link.com,2013-01-21 17:50:00,
2013-01-21 13:05:00,29.3,11.1,29.93,South,180,2.7,-999.0,46,-99.99,,,0.00,Acu-Link.com,2013-01-21 18:05:00,
2013-01-21 13:20:00,28.4,10.8,29.93,SSW,202,3.2,-999.0,47,-99.99,,,0.00,Acu-Link.com,2013-01-21 18:20:00,
2013-01-21 13:35:00,27.7,11.1,29.93,South,180,2.2,-999.0,49,-99.99,,,0.00,Acu-Link.com,2013-01-21 18:35:00,
2013-01-21 13:50:00,27.7,11.5,29.92,SW,225,1.1,-999.0,50,-99.99,,,0.00,Acu-Link.com,2013-01-21 18:50:00,
2013-01-21 14:06:00,27.9,11.7,29.92,SW,225,2.2,-999.0,50,-99.99,,,0.00,Acu-Link.com,2013-01-21 19:06:00,
2013-01-21 14:21:00,27.0,10.4,29.92,SSE,157,2.7,-999.0,49,-99.99,,,0.00,Acu-Link.com,2013-01-21 19:21:00,
2013-01-21 14:36:00,26.8,10.2,29.92,SSW,202,3.2,-999.0,49,-99.99,,,0.00,Acu-Link.com,2013-01-21 19:36:00,
2013-01-21 14:51:00,27.1,11.0,29.90,WSW,247,1.1,-999.0,50,-99.99,,,0.00,Acu-Link.com,2013-01-21 19:51:00,
2013-01-21 15:06:00,27.1,11.0,29.91,South,180,2.2,-999.0,50,-99.99,,,0.00,Acu-Link.com,2013-01-21 20:06:00,
2013-01-21 15:21:00,26.4,12.5,29.91,SW,225,1.7,-999.0,55,-99.99,,,0.00,Acu-Link.com,2013-01-21 20:21:00,
2013-01-21 15:36:00,25.5,14.7,29.90,SSE,157,0.0,-999.0,63,-99.99,,,0.00,Acu-Link.com,2013-01-21 20:36:00,
2013-01-21 15:51:00,25.0,16.3,29.89,SSE,157,2.7,-999.0,69,-99.99,,,0.00,Acu-Link.com,2013-01-21 20:51:00,
2013-01-21 16:06:00,24.8,16.8,29.88,South,180,0.0,-999.0,71,-99.99,,,0.00,Acu-Link.com,2013-01-21 21:06:00,
2013-01-21 16:22:00,24.8,16.1,29.88,ENE,67,0.0,-999.0,69,-99.99,,,0.00,Acu-Link.com,2013-01-21 21:22:00,
2013-01-21 16:37:00,24.4,16.0,29.87,ENE,67,0.0,-999.0,70,-99.99,,,0.00,Acu-Link.com,2013-01-21 21:37:00,
2013-01-21 16:52:00,23.9,17.5,29.87,North,0,1.1,-999.0,76,-99.99,,,0.00,Acu-Link.com,2013-01-21 21:52:00,
2013-01-21 17:07:00,23.4,18.4,29.87,NNW,337,2.7,-999.0,81,-99.99,,,0.00,Acu-Link.com,2013-01-21 22:07:00,
2013-01-21 17:22:00,23.2,19.4,29.87,NW,315,0.0,-999.0,85,-99.99,,,0.00,Acu-Link.com,2013-01-21 22:22:00,
2013-01-21 17:37:00,22.3,19.3,29.87,East,90,2.7,-999.0,88,-99.99,,,0.00,Acu-Link.com,2013-01-21 22:37:00,
2013-01-21 17:52:00,22.3,19.8,29.86,ENE,67,0.0,-999.0,90,-99.99,,,0.00,Acu-Link.com,2013-01-21 22:52:00,
2013-01-21 18:07:00,22.1,19.6,29.86,NE,45,0.0,-999.0,90,-99.99,,,0.00,Acu-Link.com,2013-01-21 23:07:00,
2013-01-21 18:22:00,22.1,19.6,29.86,NNE,22,0.0,-999.0,90,-99.99,,,0.00,Acu-Link.com,2013-01-21 23:22:00,
2013-01-21 18:38:00,22.1,19.9,29.86,NNE,22,0.0,-999.0,91,-99.99,,,0.00,Acu-Link.com,2013-01-21 23:38:00,
2013-01-21 18:53:00,22.1,20.1,29.86,North,0,0.0,-999.0,92,-99.99,,,0.00,Acu-Link.com,2013-01-21 23:53:00,
2013-01-21 19:08:00,22.1,20.1,29.85,NE,45,1.7,-999.0,92,-99.99,,,0.00,Acu-Link.com,2013-01-22 00:08:00,
2013-01-21 19:23:00,22.1,20.1,29.83,NNE,22,2.2,-999.0,92,-99.99,,,0.00,Acu-Link.com,2013-01-22 00:23:00,
2013-01-21 19:38:00,22.1,20.1,29.83,NE,45,2.7,-999.0,92,-99.99,,,0.00,Acu-Link.com,2013-01-22 00:38:00,
2013-01-21 19:53:00,22.1,20.1,29.83,NE,45,0.0,-999.0,92,-99.99,,,0.00,Acu-Link.com,2013-01-22 00:53:00,
2013-01-21 20:08:00,21.9,19.9,29.83,NNW,337,0.0,-999.0,92,-99.99,,,0.00,Acu-Link.com,2013-01-22 01:08:00,
2013-01-21 20:23:00,21.9,19.7,29.83,NW,315,0.0,-999.0,91,-99.99,,,0.00,Acu-Link.com,2013-01-22 01:23:00,
2013-01-21 20:38:00,21.9,19.9,29.83,North,0,0.0,-999.0,92,-99.99,,,0.00,Acu-Link.com,2013-01-22 01:38:00,
2013-01-21 20:54:00,21.9,19.9,29.81,NE,45,0.0,-999.0,92,-99.99,,,0.00,Acu-Link.com,2013-01-22 01:54:00,
2013-01-21 21:09:00,21.7,19.7,29.81,West,270,0.0,-999.0,92,-99.99,,,0.00,Acu-Link.com,2013-01-22 02:09:00,
2013-01-21 21:24:00,21.6,19.6,29.81,ESE,112,0.0,-999.0,92,-99.99,,,0.00,Acu-Link.com,2013-01-22 02:24:00,
2013-01-21 21:39:00,21.6,19.6,29.80,WNW,292,0.0,-999.0,92,-99.99,,,0.00,Acu-Link.com,2013-01-22 02:39:00,
2013-01-21 21:54:00,21.6,19.6,29.79,SE,135,0.0,-999.0,92,-99.99,,,0.00,Acu-Link.com,2013-01-22 02:54:00,
2013-01-21 22:09:00,21.4,19.4,29.77,NE,45,0.0,-999.0,92,-99.99,,,0.00,Acu-Link.com,2013-01-22 03:09:00,
2013-01-21 22:24:00,21.4,19.4,29.76,NNW,337,0.0,-999.0,92,-99.99,,,0.00,Acu-Link.com,2013-01-22 03:24:00,
2013-01-21 22:39:00,21.2,19.2,29.76,NNW,337,0.0,-999.0,92,-99.99,,,0.00,Acu-Link.com,2013-01-22 03:39:00,
2013-01-21 22:54:00,21.0,19.0,29.76,WNW,292,0.0,-999.0,92,-99.99,,,0.00,Acu-Link.com,2013-01-22 03:54:00,
2013-01-21 23:10:00,21.0,19.0,29.73,NW,315,0.0,-999.0,92,-99.99,,,0.00,Acu-Link.com,2013-01-22 04:10:00,
2013-01-21 23:25:00,20.8,18.9,29.73,ESE,112,0.0,-999.0,92,-99.99,,,0.00,Acu-Link.com,2013-01-22 04:25:00,
2013-01-21 23:40:00,20.7,19.0,29.73,SSW,202,0.0,-999.0,93,-99.99,,,0.00,Acu-Link.com,2013-01-22 04:40:00,
2013-01-21 23:55:00,20.5,18.8,29.72,SW,225,0.0,-999.0,93,-99.99,,,0.00,Acu-Link.com,2013-01-22 04:55:00,